{"data":{"norad_id":68842,"intl_designator":"2026-094D","name":"STARLINK-37524","alt_names":[],"object_type":"PAYLOAD","status":"ACTIVE","operator":null,"country":"US","launch_date":"2026-04-26","launch_site_code":"AFWTR","launch_vehicle":null,"mission":null,"orbit_class":"UNKNOWN","rcs_meters":null,"size_class":null,"mass_kg":null,"dimensions":null,"purposes":["comms"],"wikipedia_slug":null,"has_3d_model":false,"image_url":null,"decayed_at":null,"tle_current":{"epoch":"2026-09-19T23:20:43.281888Z","epoch_age_seconds":61127,"freshness":"FRESH","line1":"1 68842U 26094D   26262.97272317  .00021170  00000+0  65592-3 0  9995","line2":"2 68842  97.2846 276.0549 0001266  78.0902 282.0482 15.33459943 22578","mean_motion":15.33459943,"eccentricity":0.0001266,"inclination_deg":97.2846,"raan_deg":276.0549,"arg_perigee_deg":78.0902,"mean_anomaly_deg":282.0482,"bstar":0.00065592,"rev_number":2257,"period_min":93.905289575601,"perigee_km":464.63231070295,"apogee_km":466.36511926598,"semimajor_km":6843.6357149845,"source":"CELESTRAK","updated_at":"2026-09-20T09:00:44.014244Z"}}}